M I D A S
Marine Information and Data Acquisition System
Tripno 371 of the Zeeleeuw from 2002-12-17 07:58:17 to 2002-12-17 15:40:07
Back to CruiseResearch ActivitiesStationsMapUnderway DataData graphs

EquipmentUnitsComment
TimeDGPSUTC
LatitudeDGPSDM.mWGS84
LongitudeDGPSDM.mWGS84
TemperatureSBE03/SBE38deg celciusITS90
ConductivitySBE21S/mITS90
SalinitySBE21 Practical Salinity Units
ChlorophylAChelsea fluorimeterg/lCalibrated in Aceton
Missing or incorrect values are displayed as -999
Sea surface data collected by the RV Zeeleeuw from 2002-12-17 07:58:17 to 2002-12-17 15:40:07
                                                                                    Next 1000 lines
Time Latitude Longitude Temperature Conductivity Salinity ChlorophylA
2002-12-17 07:58:25 51°13.582 2°56.131 12.798501 0.00822 0.045271  
2002-12-17 07:58:31 51°13.582 2°56.131 12.805468 0.00822 0.045271  
2002-12-17 07:58:37 51°13.582 2°56.131 12.805468 0.00822 0.045271  
2002-12-17 07:58:41 51°13.582 2°56.131 12.807985 0.00822 0.045271  
2002-12-17 07:58:45 51°13.582 2°56.131 12.808794 0.00822 0.045271  
2002-12-17 07:58:50 51°13.582 2°56.13 12.822501 0.00822 0.045271  
2002-12-17 07:58:55 51°13.583 2°56.129 12.822277 0.00822 0.045271  
2002-12-17 07:59:01 51°13.584 2°56.126 12.792971 0.00822 0.045271  
2002-12-17 07:59:05 51°13.585 2°56.123 12.792971 0.00822 0.045271  
2002-12-17 07:59:11 51°13.587 2°56.118 12.807626 0.00822 0.045271  
2002-12-17 07:59:17 51°13.589 2°56.112 12.80358 0.00822 0.045271  
2002-12-17 07:59:21 51°13.591 2°56.107 12.804075 0.00822 0.045271  
2002-12-17 07:59:27 51°13.593 2°56.098 12.804659 0.00822 0.045272  
2002-12-17 07:59:33 51°13.597 2°56.089 12.802636 0.00822 0.045272  
2002-12-17 07:59:37 51°13.6 2°56.082 12.802636 0.00822 0.045272  
2002-12-17 07:59:42 51°13.603 2°56.072 12.807266 0.00822 0.045272  
2002-12-17 07:59:47 51°13.607 2°56.062 12.802277 0.00822 0.045272  
2002-12-17 07:59:52 51°13.611 2°56.051 12.807311 0.00822 0.045272  
2002-12-17 07:59:57 51°13.614 2°56.04 12.805693 0.00822 0.045273  
2002-12-17 08:00:02 51°13.618 2°56.028 12.809603 0.00822 0.045273  
2002-12-17 08:00:07 51°13.622 2°56.015 12.809603 0.00822 0.045273  
2002-12-17 08:00:12 51°13.626 2°56.003 12.81603 0.00822 0.045273  
2002-12-17 08:00:17 51°13.63 2°55.989 12.809019 0.00822 0.045273  
2002-12-17 08:00:22 51°13.634 2°55.975 12.808884 0.00822 0.045273  
2002-12-17 08:00:26 51°13.637 2°55.964 12.805873 0.00822 0.045273  
2002-12-17 08:00:33 51°13.642 2°55.943 12.808075 0.00822 0.045273  
2002-12-17 08:00:37 51°13.645 2°55.931 12.808075 0.00822 0.045273  
2002-12-17 08:00:42 51°13.649 2°55.916 12.800883 0.00822 0.045274  
2002-12-17 08:00:47 51°13.653 2°55.901 12.804749 0.00822 0.045274  
2002-12-17 08:00:53 51°13.657 2°55.883 12.78308 0.00822 0.045274  
2002-12-17 08:00:57 51°13.66 2°55.872 12.777549 0.00822 0.045274  
2002-12-17 08:01:02 51°13.663 2°55.859 12.792162 0.00822 0.045274  
2002-12-17 08:01:05 51°13.665 2°55.85 12.792162 0.00822 0.045274  
2002-12-17 08:01:13 51°13.668 2°55.83 12.789599 0.00822 0.045275  
2002-12-17 08:01:17 51°13.67 2°55.821 12.785913 0.00822 0.045275  
2002-12-17 08:01:22 51°13.672 2°55.809 12.777144 0.00822 0.045275  
2002-12-17 08:01:27 51°13.674 2°55.798 12.794769 0.00822 0.045275  
2002-12-17 08:01:30 51°13.674 2°55.792 12.787216 0.00822 0.045275  
2002-12-17 08:01:37 51°13.676 2°55.779 12.787216 0.00822 0.045275  
2002-12-17 08:01:42 51°13.677 2°55.771 12.790678 0.00822 0.045275  
2002-12-17 08:01:47 51°13.677 2°55.764 12.795444 0.00822 0.045275  
2002-12-17 08:01:52 51°13.677 2°55.758 12.798096 0.00822 0.045275  
2002-12-17 08:01:54 51°13.677 2°55.756 12.80839 0.00822 0.045276  
2002-12-17 08:02:02 51°13.677 2°55.749 12.794769 0.00822 0.045276  
2002-12-17 08:02:06 51°13.678 2°55.747 12.794769 0.00822 0.045276  
2002-12-17 08:02:10 51°13.678 2°55.746 12.796163 0.00822 0.045276  
2002-12-17 08:02:17 51°13.678 2°55.743 12.796028 0.00822 0.045276  
2002-12-17 08:02:21 51°13.678 2°55.743 12.798276 0.00822 0.045277  
2002-12-17 08:02:25 51°13.679 2°55.742 12.79405 0.00822 0.045277  
2002-12-17 08:02:30 51°13.68 2°55.743 12.788295 0.00822 0.045277  
2002-12-17 08:02:37 51°13.681 2°55.743 12.788295 0.00822 0.045277  
2002-12-17 08:02:42 51°13.683 2°55.744 12.789914 0.00822 0.045277  
2002-12-17 08:02:45 51°13.684 2°55.744 12.787216 0.00822 0.045277  
2002-12-17 08:02:51 51°13.687 2°55.745 12.789779 0.00822 0.045278  
2002-12-17 08:02:57 51°13.69 2°55.746 12.782405 0.00822 0.045278  
2002-12-17 08:03:02 51°13.693 2°55.746 12.776695 0.00822 0.045278  
2002-12-17 08:03:06 51°13.695 2°55.745 12.776695 0.00822 0.045278  
2002-12-17 08:03:11 51°13.699 2°55.744 12.770354 0.00822 0.045278  
2002-12-17 08:03:17 51°13.703 2°55.743 12.78272 0.00822 0.045279  
2002-12-17 08:03:21 51°13.706 2°55.741 12.788475 0.00822 0.045279  
2002-12-17 08:03:27 51°13.711 2°55.738 12.791353 0.00822 0.045279  
2002-12-17 08:03:31 51°13.715 2°55.735 12.800074 0.00822 0.04528  
2002-12-17 08:03:36 51°13.719 2°55.732 12.800074 0.00822 0.04528  
2002-12-17 08:03:41 51°13.725 2°55.728 12.802906 0.00822 0.04528  
2002-12-17 08:03:46 51°13.73 2°55.723 12.810907 0.00822 0.04528  
2002-12-17 08:03:52 51°13.738 2°55.716 12.817244 0.00822 0.04528  
2002-12-17 08:03:57 51°13.746 2°55.71 12.823086 0.00822 0.04528  
2002-12-17 08:04:01 51°13.752 2°55.705 12.823086 0.00822 0.04528  
2002-12-17 08:04:05 51°13.758 2°55.699 12.826186 0.00822 0.04528  
2002-12-17 08:04:11 51°13.768 2°55.691 12.836386 0.00822 0.04528  
2002-12-17 08:04:17 51°13.779 2°55.682 12.82677 0.00822 0.045281  
2002-12-17 08:04:21 51°13.786 2°55.676 12.823805 0.00822 0.045281  
2002-12-17 08:04:27 51°13.798 2°55.667 12.831129 0.00822 0.045281  
2002-12-17 08:04:31 51°13.806 2°55.661 12.817019 0.00822 0.045282  
2002-12-17 08:04:37 51°13.818 2°55.652 12.817019 0.00822 0.045282  
2002-12-17 08:04:42 51°13.828 2°55.645 12.821108 0.00822 0.045282  
2002-12-17 08:04:47 51°13.838 2°55.637 12.824524 0.00822 0.045282  
2002-12-17 08:04:50 51°13.844 2°55.633 12.817693 0.00822 0.045283  
2002-12-17 08:04:57 51°13.857 2°55.621 12.820884 0.00822 0.045283  
2002-12-17 08:05:01 51°13.866 2°55.614 12.827534 0.00822 0.045283  
2002-12-17 08:05:06 51°13.876 2°55.605 12.827534 0.00822 0.045283  
2002-12-17 08:05:11 51°13.887 2°55.597 12.824748 0.00822 0.045283  
2002-12-17 08:05:17 51°13.9 2°55.587 12.83014 0.00822 0.045284  
2002-12-17 08:05:22 51°13.911 2°55.58 12.8305 0.00822 0.045284  
2002-12-17 08:05:25 51°13.918 2°55.575 12.826591 0.00822 0.045284  
2002-12-17 08:05:31 51°13.931 2°55.565 12.829781 0.00822 0.045285  
2002-12-17 08:05:37 51°13.945 2°55.555 12.829781 0.00822 0.045285  
2002-12-17 08:05:42 51°13.956 2°55.547 12.829062 0.00822 0.045285  
2002-12-17 08:05:47 51°13.967 2°55.539 12.823131 0.00822 0.045286  
2002-12-17 08:05:52 51°13.978 2°55.53 12.829466 0.00822 0.045285  
2002-12-17 08:05:57 51°13.989 2°55.522 12.830185 0.00822 0.045286  
2002-12-17 08:06:02 51°14 2°55.514 12.81994 0.00822 0.045287  
2002-12-17 08:06:06 51°14.009 2°55.507 12.81994 0.00822 0.045287  
2002-12-17 08:06:11 51°14.02 2°55.499 12.827669 0.00822 0.045287  
2002-12-17 08:06:17 51°14.034 2°55.489 12.830994 0.00822 0.045287  
2002-12-17 08:06:22 51°14.046 2°55.48 12.828747 0.00822 0.045287  
2002-12-17 08:06:26 51°14.055 2°55.473 12.816165 0.00822 0.045288  
2002-12-17 08:06:32 51°14.069 2°55.462 12.813783 0.00822 0.045288  
2002-12-17 08:06:37 51°14.081 2°55.452 12.813783 0.00822 0.045288  
2002-12-17 08:06:42 51°14.095 2°55.441 12.813468 0.00822 0.045289  
2002-12-17 08:06:45 51°14.103 2°55.434 12.836475 0.00822 0.045289  
2002-12-17 08:06:51 51°14.12 2°55.419 12.831219 0.00822 0.045288  
2002-12-17 08:06:57 51°14.137 2°55.404 12.824029 0.00822 0.045289  
2002-12-17 08:07:02 51°14.152 2°55.39 12.826141 0.00822 0.045289  
2002-12-17 08:07:06 51°14.164 2°55.379 12.826141 0.00822 0.045289  
2002-12-17 08:07:12 51°14.181 2°55.36 12.821693 0.00822 0.04529  
2002-12-17 08:07:17 51°14.196 2°55.344 12.828028 0.00822 0.04529  
2002-12-17 08:07:22 51°14.21 2°55.326 12.818277 0.00822 0.045291  
2002-12-17 08:07:27 51°14.223 2°55.309 12.821243 0.00822 0.045291  
2002-12-17 08:07:29 51°14.228 2°55.302 12.820659 0.00822 0.045292  
2002-12-17 08:07:37 51°14.249 2°55.272 12.820659 0.00822 0.045292  
2002-12-17 08:07:41 51°14.259 2°55.255 12.811895 0.00822 0.045292  
2002-12-17 08:07:45 51°14.269 2°55.239 12.801153 0.00822 0.045292  
2002-12-17 08:07:51 51°14.283 2°55.214 12.809154 0.00822 0.045292  
2002-12-17 08:07:57 51°14.297 2°55.188 12.810592 0.00822 0.045294  
2002-12-17 08:08:02 51°14.308 2°55.166 12.813963 0.00822 0.045294  
2002-12-17 08:08:06 51°14.317 2°55.149 12.813963 0.00822 0.045294  
2002-12-17 08:08:11 51°14.328 2°55.126 12.811536 0.00822 0.045293  
2002-12-17 08:08:17 51°14.342 2°55.1 12.806772 0.00822 0.045293  
2002-12-17 08:08:21 51°14.351 2°55.082 12.807715 0.00822 0.045294  
2002-12-17 08:08:27 51°14.364 2°55.055 12.795084 0.00822 0.045295  
2002-12-17 08:08:31 51°14.373 2°55.037 12.793466 0.00822 0.045296  
2002-12-17 08:08:37 51°14.387 2°55.01 12.793466 0.00822 0.045296  
2002-12-17 08:08:42 51°14.4 2°54.989 12.795354 0.00822 0.045296  
2002-12-17 08:08:46 51°14.41 2°54.975 12.732431 0.00822 0.045295  
2002-12-17 08:08:52 51°14.428 2°54.953 12.771073 0.00822 0.045296  
2002-12-17 08:08:57 51°14.443 2°54.936 12.778314 0.00822 0.045298  
2002-12-17 08:09:02 51°14.46 2°54.919 12.778358 0.00822 0.045298  
2002-12-17 08:09:06 51°14.472 2°54.907 12.778358 0.00822 0.045298  
2002-12-17 08:09:10 51°14.485 2°54.895 12.777909 0.00822 0.0453  
2002-12-17 08:09:15 51°14.501 2°54.88 12.768825 0.00822 0.0453  
2002-12-17 08:09:21 51°14.52 2°54.862 12.763833 0.00822 0.045301  
2002-12-17 08:09:27 51°14.539 2°54.844 12.757356 0.00822 0.045301  
2002-12-17 08:09:31 51°14.551 2°54.832 12.751328 0.00822 0.045301  
2002-12-17 08:09:37 51°14.569 2°54.813 12.751328 0.00822 0.045301  
2002-12-17 08:09:42 51°14.585 2°54.797 12.74494 0.00822 0.045302  
2002-12-17 08:09:46 51°14.598 2°54.783 12.74494 0.00822 0.045302  
2002-12-17 08:09:52 51°14.618 2°54.763 12.746244 0.00822 0.045303  
2002-12-17 08:09:57 51°14.634 2°54.746 12.747189 0.00822 0.045303  
2002-12-17 08:10:02 51°14.65 2°54.729 12.737876 0.00822 0.045304  
2002-12-17 08:10:06 51°14.662 2°54.715 12.737876 0.00822 0.045304  
2002-12-17 08:10:10 51°14.675 2°54.702 12.735761 0.00822 0.045304  
2002-12-17 08:10:17 51°14.697 2°54.678 12.737246 0.00822 0.045304  
2002-12-17 08:10:21 51°14.71 2°54.664 12.738236 0.00822 0.045305  
2002-12-17 08:10:27 51°14.728 2°54.644 12.731846 0.00822 0.045305  
2002-12-17 08:10:31 51°14.741 2°54.631 12.730766 0.00822 0.045306  
2002-12-17 08:10:37 51°14.76 2°54.611 12.730766 0.00822 0.045306  
2002-12-17 08:10:41 51°14.773 2°54.597 12.727841 0.00822 0.045306  
2002-12-17 08:10:47 51°14.792 2°54.576 12.725726 0.00822 0.045307  
2002-12-17 08:10:52 51°14.809 2°54.56 12.726401 0.00822 0.045307  
2002-12-17 08:10:57 51°14.826 2°54.543 12.725951 0.00822 0.045308  
2002-12-17 08:11:02 51°14.842 2°54.527 12.724151 0.00822 0.045308  
2002-12-17 08:11:06 51°14.855 2°54.514 12.724151 0.00822 0.045308  
2002-12-17 08:11:11 51°14.871 2°54.498 12.719516 0.00822 0.045308  
2002-12-17 08:11:17 51°14.891 2°54.478 12.707318 0.00822 0.045308  
2002-12-17 08:11:22 51°14.907 2°54.461 12.712719 0.00822 0.04531  
2002-12-17 08:11:26 51°14.92 2°54.448 12.704887 0.00822 0.04531  
2002-12-17 08:11:32 51°14.939 2°54.428 12.711324 0.00822 0.04531  
2002-12-17 08:11:37 51°14.954 2°54.411 12.711324 0.00822 0.04531  
2002-12-17 08:11:42 51°14.97 2°54.395 11.605444 0.00822 0.045313  
2002-12-17 08:11:46 51°14.983 2°54.382 6.933793 0.00822 0.045339  
2002-12-17 08:11:50 51°14.996 2°54.369 6.21065 0.00822 0.045382  
2002-12-17 08:11:57 51°15.017 2°54.346 5.977547 2.76035 20.459729  
2002-12-17 08:12:01 51°15.03 2°54.333 -999 2.621208 20.415547  
2002-12-17 08:12:06 51°15.046 2°54.316 -999 2.621208 20.415547  
2002-12-17 08:12:11 51°15.062 2°54.299 9.324324 2.711062 23.149023  
2002-12-17 08:12:17 51°15.081 2°54.28 7.513368 2.602005 23.178526  
2002-12-17 08:12:21 51°15.093 2°54.267 7.149648 2.881216 26.86373  
2002-12-17 08:12:26 51°15.109 2°54.251 6.821599 2.989098 28.617962  
2002-12-17 08:12:31 51°15.126 2°54.234 7.280397 3.084578 30.06236  
2002-12-17 08:12:37 51°15.145 2°54.215 7.280397 3.084578 30.06236  
2002-12-17 08:12:42 51°15.162 2°54.199 7.32661 2.28738 21.826103  
2002-12-17 08:12:46 51°15.175 2°54.186 6.963641 3.08553 30.497024  
2002-12-17 08:12:51 51°15.192 2°54.17 7.447679 3.066582 30.403501  
2002-12-17 08:12:55 51°15.205 2°54.158 6.790205 3.061952 30.473058  
2002-12-17 08:13:01 51°15.225 2°54.139 7.160334 3.064163 30.565307  
2002-12-17 08:13:06 51°15.241 2°54.123 7.160334 3.064163 30.565307  
2002-12-17 08:13:11 51°15.258 2°54.107 6.683239 3.050058 30.463801  
2002-12-17 08:13:17 51°15.277 2°54.088 6.731909 3.052269 30.534673  
2002-12-17 08:13:22 51°15.293 2°54.071 7.194437 3.053638 30.594888  
2002-12-17 08:13:26 51°15.306 2°54.058 7.026441 3.054375 30.629548  
2002-12-17 08:13:32 51°15.324 2°54.039 6.813518 3.055744 30.674405  
2002-12-17 08:13:37 51°15.34 2°54.022 6.813518 3.055744 30.674405  
2002-12-17 08:13:41 51°15.353 2°54.009 6.967329 3.054902 30.677576  
2002-12-17 08:13:47 51°15.373 2°53.989 7.004237 3.055429 30.699863  
2002-12-17 08:13:51 51°15.386 2°53.976 7.086774 3.063429 30.801313  
2002-12-17 08:13:57 51°15.405 2°53.956 7.169792 3.068903 30.878724  
2002-12-17 08:14:02 51°15.422 2°53.939 7.169792 3.068903 30.878724  
2002-12-17 08:14:06 51°15.434 2°53.926 6.896597 3.07322 30.935436  
2002-12-17 08:14:12 51°15.454 2°53.906 7.03037 3.067851 30.886743  
2002-12-17 08:14:17 51°15.47 2°53.89 7.107576 3.071325 30.926204  
2002-12-17 08:14:22 51°15.486 2°53.874 6.71212 3.075852 30.968686  
2002-12-17 08:14:26 51°15.499 2°53.861 6.62277 3.081221 31.030048  
2002-12-17 08:14:30 51°15.512 2°53.847 7.026244 3.081958 31.045397  
2002-12-17 08:14:37 51°15.534 2°53.823 7.026244 3.081958 31.045397  
2002-12-17 08:14:41 51°15.547 2°53.81 7.117876 3.079326 31.012119  
2002-12-17 08:14:47 51°15.566 2°53.79 7.401896 3.084063 31.066467  
2002-12-17 08:14:51 51°15.579 2°53.776 7.012687 3.089221 31.119955  
2002-12-17 08:14:57 51°15.598 2°53.756 6.935465 3.084905 31.079027  
2002-12-17 08:15:02 51°15.614 2°53.74 6.625834 3.093538 31.173624  
2002-12-17 08:15:06 51°15.626 2°53.727 6.625834 3.093538 31.173624  
2002-12-17 08:15:12 51°15.645 2°53.707 6.757463 3.093854 31.178738  
2002-12-17 08:15:17 51°15.662 2°53.691 7.257988 3.097959 31.221309  
2002-12-17 08:15:22 51°15.678 2°53.675 7.382949 3.101012 31.252145  
2002-12-17 08:15:27 51°15.695 2°53.66 6.951989 3.105013 31.291143  
2002-12-17 08:15:30 51°15.705 2°53.65 6.904914 3.104802 31.287996  
2002-12-17 08:15:37 51°15.728 2°53.629 6.904914 3.104802 31.287996  
2002-12-17 08:15:41 51°15.741 2°53.617 7.22343 3.044902 30.61267  
2002-12-17 08:15:47 51°15.761 2°53.601 7.150972 3.049955 30.657856  
2002-12-17 08:15:51 51°15.776 2°53.589 6.829876 3.112382 31.347663  
2002-12-17 08:15:57 51°15.796 2°53.573 6.839926 3.114172 31.362799  
2002-12-17 08:16:02 51°15.813 2°53.559 7.121063 3.107855 31.293235  
2002-12-17 08:16:06 51°15.826 2°53.547 7.121063 3.107855 31.293235  
2002-12-17 08:16:12 51°15.846 2°53.53 7.184296 3.117857 31.399846  
2002-12-17 08:16:17 51°15.863 2°53.515 7.36805 3.116172 31.381079  
2002-12-17 08:16:22 51°15.88 2°53.5 7.219121 3.118804 31.411205  
2002-12-17 08:16:26 51°15.894 2°53.489 6.777978 3.119225 31.413491  
2002-12-17 08:16:32 51°15.914 2°53.471 7.418153 3.122805 31.452573  
2002-12-17 08:16:37 51°15.931 2°53.456 7.418153 3.122805 31.452573  
2002-12-17 08:16:42 51°15.947 2°53.442 6.98753 3.124384 31.470975  
2002-12-17 08:16:45 51°15.957 2°53.433 7.228962 3.127016 31.497092  
2002-12-17 08:16:51 51°15.978 2°53.415 7.315463 3.127332 31.496592  
2002-12-17 08:16:57 51°15.998 2°53.398 6.924988 3.129227 31.516101  
2002-12-17 08:17:02 51°16.014 2°53.384 7.006301 3.130596 31.52894  
2002-12-17 08:17:06 51°16.028 2°53.372 7.006301 3.130596 31.52894  
2002-12-17 08:17:11 51°16.045 2°53.357 7.099678 3.129332 31.513253  
2002-12-17 08:17:14 51°16.055 2°53.348 6.82559 3.131122 31.528369  
2002-12-17 08:17:22 51°16.082 2°53.325 6.871345 3.13028 31.516572  
2002-12-17 08:17:26 51°16.095 2°53.315 6.840517 3.131964 31.531317  
2002-12-17 08:17:32 51°16.116 2°53.298 7.244823 3.129332 31.49798  
2002-12-17 08:17:37 51°16.132 2°53.285 7.244823 3.129332 31.49798  
2002-12-17 08:17:42 51°16.149 2°53.271 6.890199 3.132385 31.527965  
2002-12-17 08:17:46 51°16.162 2°53.261 7.024918 3.139861 31.605589  
2002-12-17 08:17:52 51°16.182 2°53.244 6.887935 3.140598 31.607351  
2002-12-17 08:17:57 51°16.198 2°53.23 6.947416 3.137228 31.560981  
2002-12-17 08:18:02 51°16.215 2°53.217 7.167636 3.140597 31.594464  
2002-12-17 08:18:06 51°16.228 2°53.206 7.167636 3.140597 31.594464  
2002-12-17 08:18:11 51°16.245 2°53.193 7.461583 3.146072 31.651387  
2002-12-17 08:18:17 51°16.265 2°53.176 7.472363 3.148178 31.666765  
2002-12-17 08:18:21 51°16.278 2°53.166 6.921987 3.151652 31.694145  
2002-12-17 08:18:27 51°16.298 2°53.149 7.253829 3.14902 31.647928  
2002-12-17 08:18:31 51°16.311 2°53.138 7.142001 3.160075 31.756377  
2002-12-17 08:18:37 51°16.331 2°53.121 7.142001 3.160075 31.756377  
2002-12-17 08:18:42 51°16.347 2°53.107 7.50825 3.164181 31.78912  
2002-12-17 08:18:46 51°16.361 2°53.095 6.988169 3.166498 31.801945  
2002-12-17 08:18:52 51°16.38 2°53.078 7.354175 3.170288 31.834381  
2002-12-17 08:18:57 51°16.397 2°53.065 7.040191 3.170814 31.828104  
2002-12-17 08:19:01 51°16.41 2°53.054 7.242963 3.173657 31.84999  
2002-12-17 08:19:06 51°16.427 2°53.04 7.242963 3.173657 31.84999  
2002-12-17 08:19:11 51°16.443 2°53.026 7.447777 3.176184 31.870785  
2002-12-17 08:19:17 51°16.463 2°53.01 6.968951 3.1765 31.869441  
2002-12-17 08:19:21 51°16.476 2°52.999 7.258037 3.179343 31.896973  
2002-12-17 08:19:27 51°16.496 2°52.982 7.30319 3.179027 31.889419  
2002-12-17 08:19:31 51°16.509 2°52.971 7.705804 3.182291 31.920004  
2002-12-17 08:19:37 51°16.529 2°52.954 7.705804 3.182291 31.920004  
2002-12-17 08:19:42 51°16.546 2°52.94 7.310427 3.182185 31.917215  
2002-12-17 08:19:46 51°16.56 2°52.929 6.909638 3.1785 31.872252  
2002-12-17 08:19:52 51°16.579 2°52.912 7.391691 3.184923 31.940328  
2002-12-17 08:19:57 51°16.596 2°52.898 6.782711 3.177868 31.859583  
2002-12-17 08:20:01 51°16.609 2°52.887 7.343961 3.186818 31.955701  
2002-12-17 08:20:05 51°16.622 2°52.875 7.343961 3.186818 31.955701  
2002-12-17 08:20:12 51°16.646 2°52.856 7.180719 3.179869 31.875323  
2002-12-17 08:20:17 51°16.662 2°52.842 7.339856 3.188082 31.961627  
2002-12-17 08:20:22 51°16.678 2°52.828 6.810561 3.188398 31.965944  
2002-12-17 08:20:27 51°16.695 2°52.814 7.088295 3.18745 31.955424  
2002-12-17 08:20:31 51°16.708 2°52.803 7.684856 3.184712 31.929893  
2002-12-17 08:20:37 51°16.728 2°52.786 7.684856 3.184712 31.929893  
2002-12-17 08:20:42 51°16.744 2°52.773 7.124692 3.184291 31.925217  
2002-12-17 08:20:46 51°16.757 2°52.761 7.690008 3.184397 31.928814  
2002-12-17 08:20:50 51°16.77 2°52.75 7.287001 3.185134 31.940236  
2002-12-17 08:20:57 51°16.793 2°52.731 7.005957 3.185134 31.946716  
2002-12-17 08:21:01 51°16.806 2°52.72 7.239586 3.18366 31.931966  
2002-12-17 08:21:06 51°16.822 2°52.706 7.239586 3.18366 31.931966  
2002-12-17 08:21:11 51°16.838 2°52.693 7.34704 3.184186 31.937813  
2002-12-17 08:21:17 51°16.857 2°52.676 7.219659 3.18387 31.937545  
2002-12-17 08:21:22 51°16.874 2°52.663 7.045445 3.183028 31.928999  
2002-12-17 08:21:25 51°16.884 2°52.655 6.791536 3.182607 31.924322  
2002-12-17 08:21:31 51°16.903 2°52.638 6.537896 3.181764 31.920635  
2002-12-17 08:21:37 51°16.923 2°52.622 6.537896 3.181764 31.920635  
2002-12-17 08:21:42 51°16.939 2°52.608 7.106447 3.18029 31.908309  
2002-12-17 08:21:46 51°16.952 2°52.597 6.737534 3.177974 31.890671  
2002-12-17 08:21:50 51°16.966 2°52.587 7.175722 3.176289 31.880047  
2002-12-17 08:21:57 51°16.989 2°52.568 7.531985 3.173552 31.857717  
2002-12-17 08:22:01 51°17.002 2°52.557 6.639671 3.169551 31.826996  
2002-12-17 08:22:05 51°17.015 2°52.546 6.639671 3.169551 31.826996  
2002-12-17 08:22:12 51°17.038 2°52.527 7.484945 3.171551 31.85571  
2002-12-17 08:22:17 51°17.054 2°52.513 7.034642 3.171236 31.857865  
2002-12-17 08:22:21 51°17.067 2°52.502 6.983599 3.170288 31.852184  
2002-12-17 08:22:27 51°17.087 2°52.485 7.101787 3.169446 31.845244  
2002-12-17 08:22:31 51°17.1 2°52.474 6.969492 3.168814 31.846314  
2002-12-17 08:22:37 51°17.12 2°52.457 6.969492 3.168814 31.846314  
2002-12-17 08:22:41 51°17.132 2°52.445 7.004827 3.167761 31.837029  
2002-12-17 08:22:47 51°17.151 2°52.428 7.038767 3.162602 31.786912  
2002-12-17 08:22:51 51°17.164 2°52.417 7.149795 3.163129 31.798432  
2002-12-17 08:22:57 51°17.184 2°52.4 6.982763 3.162076 31.794805  
2002-12-17 08:23:02 51°17.2 2°52.386 7.294876 3.161655 31.794973  
2002-12-17 08:23:06 51°17.213 2°52.375 7.294876 3.161655 31.794973  
2002-12-17 08:23:12 51°17.233 2°52.357 7.365998 3.160812 31.791261  
2002-12-17 08:23:17 51°17.248 2°52.342 7.325632 3.158917 31.777444  
2002-12-17 08:23:22 51°17.264 2°52.327 7.447777 3.159865 31.794473  
2002-12-17 08:23:27 51°17.28 2°52.311 7.800156 3.157654 31.776324  
2002-12-17 08:23:32 51°17.296 2°52.295 7.197425 3.156285 31.769981  
2002-12-17 08:23:37 51°17.311 2°52.279 7.197425 3.156285 31.769981  
2002-12-17 08:23:42 51°17.326 2°52.263 6.546508 3.155654 31.77185  
2002-12-17 08:23:46 51°17.339 2°52.25 6.667683 3.154496 31.764612  
2002-12-17 08:23:50 51°17.351 2°52.236 6.743158 3.152916 31.752678  
2002-12-17 08:23:57 51°17.373 2°52.213 6.901961 3.151337 31.739122  
2002-12-17 08:24:01 51°17.385 2°52.2 6.449689 3.151548 31.744708  
2002-12-17 08:24:06 51°17.4 2°52.184 6.449689 3.151548 31.744708  
2002-12-17 08:24:11 51°17.416 2°52.167 6.691633 3.150074 31.732323  
2002-12-17 08:24:17 51°17.434 2°52.147 6.966198 3.151127 31.747301  
2002-12-17 08:24:22 51°17.449 2°52.13 7.001682 3.149126 31.728234  
2002-12-17 08:24:26 51°17.461 2°52.115 7.035772 3.149547 31.736169  
2002-12-17 08:24:32 51°17.478 2°52.093 7.301821 3.148389 31.728922  
2002-12-17 08:24:37 51°17.492 2°52.073 7.301821 3.148389 31.728922  
2002-12-17 08:24:41 51°17.503 2°52.057 7.492796 3.14881 31.736859  
2002-12-17 08:24:47 51°17.519 2°52.031 7.198307 3.146915 31.718959  
2002-12-17 08:24:51 51°17.529 2°52.014 7.155531 3.146389 31.717945  
2002-12-17 08:24:57 51°17.544 2°51.988 7.099629 3.145441 31.713852  
2002-12-17 08:25:02 51°17.556 2°51.965 6.729343 3.141125 31.672161  
2002-12-17 08:25:06 51°17.566 2°51.947 6.729343 3.141125 31.672161  
2002-12-17 08:25:12 51°17.58 2°51.919 6.846526 3.142388 31.697596  
2002-12-17 08:25:17 51°17.592 2°51.895 6.99898 3.140283 31.685427  
2002-12-17 08:25:22 51°17.604 2°51.872 6.62188 3.13744 31.664212  
2002-12-17 08:25:26 51°17.613 2°51.854 6.332069 3.135861 31.653861  
2002-12-17 08:25:30 51°17.622 2°51.835 6.653703 3.135861 31.66358  
2002-12-17 08:25:37 51°17.637 2°51.801 6.653703 3.135861 31.66358  
2002-12-17 08:25:41 51°17.646 2°51.782 6.605517 3.13365 31.646976  
2002-12-17 08:25:47 51°17.66 2°51.755 6.530274 3.132071 31.638236  
2002-12-17 08:25:51 51°17.669 2°51.736 6.683437 3.130176 31.626772  
2002-12-17 08:25:57 51°17.682 2°51.706 6.646292 3.123859 31.560201  
2002-12-17 08:26:02 51°17.694 2°51.683 6.60082 3.127439 31.608314  
2002-12-17 08:26:06 51°17.702 2°51.664 6.60082 3.127439 31.608314  
2002-12-17 08:26:12 51°17.716 2°51.636 6.594194 3.12407 31.574687  
2002-12-17 08:26:17 51°17.727 2°51.612 6.590238 3.125438 31.594041  
2002-12-17 08:26:22 51°17.739 2°51.589 6.790254 3.120806 31.545469  
2002-12-17 08:26:26 51°17.748 2°51.57 6.666201 3.122385 31.564749  
2002-12-17 08:26:30 51°17.757 2°51.551 6.980158 3.124701 31.591466  
2002-12-17 08:26:37 51°17.773 2°51.519 6.980158 3.124701 31.591466  
2002-12-17 08:26:41 51°17.783 2°51.5 7.336581 3.120595 31.548775  
2002-12-17 08:26:47 51°17.797 2°51.472 6.648022 3.122806 31.579173  
2002-12-17 08:26:51 51°17.806 2°51.453 6.318264 3.121017 31.563195  
2002-12-17 08:26:57 51°17.82 2°51.425 6.600079 3.12228 31.581381  
2002-12-17 08:27:01 51°17.829 2°51.406 7.043285 3.121122 31.57328  
2002-12-17 08:27:05 51°17.839 2°51.388 7.043285 3.121122 31.57328  
2002-12-17 08:27:11 51°17.853 2°51.359 6.960102 3.120069 31.567166  
2002-12-17 08:27:17 51°17.868 2°51.331 6.556157 3.117332 31.542193  
2002-12-17 08:27:21 51°17.877 2°51.312 6.917067 3.117964 31.556553  
2002-12-17 08:27:27 51°17.891 2°51.284 6.475109 3.116911 31.546384  
2002-12-17 08:27:31 51°17.9 2°51.265 6.795726 3.116069 31.541002  
2002-12-17 08:27:37 51°17.914 2°51.236 6.795726 3.116069 31.541002  
2002-12-17 08:27:42 51°17.926 2°51.213 7.243355 3.11649 31.547338  
2002-12-17 08:27:46 51°17.936 2°51.194 6.643179 3.1167 31.551316  
2002-12-17 08:27:52 51°17.95 2°51.166 6.396636 3.116385 31.55102  
2002-12-17 08:27:57 51°17.961 2°51.142 6.477982 3.116385 31.55021  
2002-12-17 08:28:02 51°17.973 2°51.119 6.639918 3.114805 31.533332  
2002-12-17 08:28:06 51°17.983 2°51.1 6.639918 3.114805 31.533332  
2002-12-17 08:28:10 51°17.993 2°51.081 6.515918 3.115542 31.540776  
2002-12-17 08:28:17 51°18.009 2°51.048 6.267735 3.116279 31.54822  
2002-12-17 08:28:21 51°18.019 2°51.029 6.672572 3.116174 31.545421  
2002-12-17 08:28:27 51°18.033 2°51 6.992887 3.112595 31.507763  
2002-12-17 08:28:31 51°18.042 2°50.981 6.792916 3.116069 31.545862  
2002-12-17 08:28:37 51°18.057 2°50.953 6.792916 3.116069 31.545862  
2002-12-17 08:28:42 51°18.068 2°50.929 6.956955 3.115016 31.53731  
2002-12-17 08:28:46 51°18.078 2°50.911 6.549081 3.114911 31.535321  
2002-12-17 08:28:52 51°18.093 2°50.883 6.585293 3.114384 31.534285  
2002-12-17 08:28:57 51°18.105 2°50.86 6.853865 3.111963 31.5104  
2002-12-17 08:29:02 51°18.116 2°50.837 6.417713 3.113226 31.525361  
2002-12-17 08:29:06 51°18.126 2°50.817 6.417713 3.113226 31.525361  
2002-12-17 08:29:12 51°18.139 2°50.789 6.984188 3.113647 31.528459  
2002-12-17 08:29:17 51°18.151 2°50.765 6.866914 3.114174 31.533546  
2002-12-17 08:29:22 51°18.162 2°50.741 6.755293 3.114806 31.543863  
2002-12-17 08:29:27 51°18.174 2°50.717 6.600622 3.111331 31.505752  
2002-12-17 08:29:30 51°18.181 2°50.703 6.803957 3.114069 31.542089  
2002-12-17 08:29:37 51°18.197 2°50.67 6.803957 3.114069 31.542089  
2002-12-17 08:29:41 51°18.207 2°50.651 6.551605 3.112279 31.523655  
2002-12-17 08:29:47 51°18.221 2°50.622 6.744194 3.114174 31.544079  
2002-12-17 08:29:51 51°18.231 2°50.604 6.738027 3.114174 31.542458  
2002-12-17 08:29:57 51°18.246 2°50.576 6.730231 3.112279 31.516366  
2002-12-17 08:30:01 51°18.256 2°50.557 6.849038 3.114911 31.541802  
2002-12-17 08:30:05 51°18.266 2°50.537 6.849038 3.114911 31.541802  
2002-12-17 08:30:11 51°18.28 2°50.51 6.724359 3.115121 31.545781  
2002-12-17 08:30:17 51°18.295 2°50.482 6.76999 3.116174 31.56163  
2002-12-17 08:30:21 51°18.305 2°50.463 6.657062 3.115332 31.553814  
2002-12-17 08:30:26 51°18.317 2°50.439 6.625587 3.113648 31.544665  
2002-12-17 08:30:31 51°18.329 2°50.416 7.236991 3.113121 31.544441  
2002-12-17 08:30:37 51°18.344 2°50.387 7.236991 3.113121 31.544441  
2002-12-17 08:30:41 51°18.354 2°50.368 6.636805 3.112069 31.536693  
2002-12-17 08:30:46 51°18.365 2°50.343 6.680918 3.110805 31.523341  
2002-12-17 08:30:51 51°18.377 2°50.319 6.683535 3.112595 31.540162  
2002-12-17 08:30:57 51°18.392 2°50.291 6.847511 3.1147 31.560521  
2002-12-17 08:31:02 51°18.403 2°50.267 6.687436 3.115437 31.562292  
2002-12-17 08:31:07 51°18.414 2°50.242 6.687436 3.115437 31.562292  
2002-12-17 08:31:10 51°18.421 2°50.227 6.368306 3.116911 31.573132  
2002-12-17 08:31:17 51°18.437 2°50.193 6.57822 3.117122 31.570625  
2002-12-17 08:31:21 51°18.446 2°50.173 6.702939 3.119859 31.59724  
2002-12-17 08:31:27 51°18.459 2°50.142 6.785423 3.120596 31.603062  
2002-12-17 08:31:31 51°18.468 2°50.122 6.52775 3.121333 31.610508  
2002-12-17 08:31:37 51°18.481 2°50.091 6.52775 3.121333 31.610508  
2002-12-17 08:31:42 51°18.491 2°50.066 6.672226 3.121543 31.610432  
2002-12-17 08:31:46 51°18.499 2°50.045 6.679338 3.122702 31.618535  
2002-12-17 08:31:52 51°18.512 2°50.014 6.403828 3.12386 31.627449  
2002-12-17 08:31:57 51°18.522 2°49.989 6.617233 3.124702 31.632823  
2002-12-17 08:32:02 51°18.532 2°49.963 6.877893 3.126492 31.651247  
2002-12-17 08:32:06 51°18.54 2°49.942 6.877893 3.126492 31.651247  
2002-12-17 08:32:10 51°18.548 2°49.922 6.495814 3.126807 31.651535  
2002-12-17 08:32:17 51°18.562 2°49.886 6.879025 3.128176 31.661989  
2002-12-17 08:32:21 51°18.57 2°49.865 6.73556 3.129545 31.670816  
2002-12-17 08:32:27 51°18.583 2°49.835 7.071021 3.131545 31.6859  
2002-12-17 08:32:31 51°18.591 2°49.814 6.958381 3.133545 31.697728  
2002-12-17 08:32:37 51°18.603 2°49.784 6.958381 3.133545 31.697728  
2002-12-17 08:32:41 51°18.611 2°49.763 6.967132 3.134072 31.688995  
2002-12-17 08:32:47 51°18.623 2°49.733 7.254367 3.13744 31.708815  
2002-12-17 08:32:51 51°18.631 2°49.712 6.412011 3.14281 31.75261  
2002-12-17 08:32:57 51°18.643 2°49.682 6.820663 3.146179 31.775643  
2002-12-17 08:33:02 51°18.653 2°49.656 6.985859 3.146916 31.773312  
2002-12-17 08:33:06 51°18.661 2°49.636 6.985859 3.146916 31.773312  
2002-12-17 08:33:12 51°18.673 2°49.606 7.111156 3.149864 31.794871  
2002-12-17 08:33:17 51°18.683 2°49.581 7.314779 3.151969 31.808638  
2002-12-17 08:33:22 51°18.694 2°49.556 6.914853 3.153128 31.816695  
2002-12-17 08:33:27 51°18.704 2°49.531 7.119445 3.153864 31.820048  
2002-12-17 08:33:30 51°18.71 2°49.515 7.0397 3.154657 37.679334  
2002-12-17 08:33:37 51°18.724 2°49.48 7.0397 3.154657 37.679334  
2002-12-17 08:33:41 51°18.732 2°49.46 7.241348 3.155233 31.825575  
2002-12-17 08:33:47 51°18.745 2°49.43 6.677857 3.156707 31.837153  
2002-12-17 08:33:51 51°18.753 2°49.41 6.802774 3.157128 31.840228  
2002-12-17 08:33:57 51°18.765 2°49.38 6.726531 3.157339 31.839326  
2002-12-17 08:34:01 51°18.773 2°49.36 6.728751 3.157865 31.842763  
2002-12-17 08:34:05 51°18.782 2°49.34 6.728751 3.157865 31.842763  
2002-12-17 08:34:11 51°18.794 2°49.31 6.611697 3.157549 31.838425  
2002-12-17 08:34:17 51°18.807 2°49.279 6.780542 3.15797 31.842312  
2002-12-17 08:34:21 51°18.815 2°49.259 6.527799 3.158181 31.842224  
2002-12-17 08:34:26 51°18.826 2°49.234 6.752037 3.158707 31.844034  
2002-12-17 08:34:31 51°18.836 2°49.209 6.722089 3.159971 31.853255  
2002-12-17 08:34:37 51°18.849 2°49.179 6.722089 3.159971 31.853255  
2002-12-17 08:34:41 51°18.857 2°49.159 7.093938 3.160181 31.852353  
2002-12-17 08:34:46 51°18.867 2°49.134 7.190959 3.160813 31.85615  
2002-12-17 08:34:51 51°18.878 2°49.109 7.126458 3.162077 31.865367  
2002-12-17 08:34:57 51°18.89 2°49.078 6.944121 3.161761 31.856968  
2002-12-17 08:35:02 51°18.9 2°49.053 6.937285 3.164077 31.876299  
2002-12-17 08:35:06 51°18.909 2°49.032 6.937285 3.164077 31.876299  
2002-12-17 08:35:10 51°18.917 2°49.012 7.011999 3.165762 31.887768  
2002-12-17 08:35:17 51°18.932 2°48.976 6.53854 3.166814 31.890565  
2002-12-17 08:35:21 51°18.94 2°48.955 7.033071 3.170815 31.922154  
2002-12-17 08:35:25 51°18.948 2°48.935 6.889658 3.172605 31.929089  
2002-12-17 08:35:32 51°18.963 2°48.9 6.817017 3.176185 31.955145  
2002-12-17 08:35:37 51°18.973 2°48.873 6.817017 3.176185 31.955145  
2002-12-17 08:35:41 51°18.982 2°48.853 6.914607 3.178606 31.966661  
2002-12-17 08:35:45 51°18.99 2°48.832 6.930497 3.180923 31.981878  
2002-12-17 08:35:51 51°19.003 2°48.801 6.989938 3.183134 31.993475  
2002-12-17 08:35:57 51°19.016 2°48.771 7.365803 3.185345 32.00588  
2002-12-17 08:36:02 51°19.027 2°48.745 7.139451 3.188082 32.024947  
2002-12-17 08:36:06 51°19.035 2°48.725 7.139451 3.188082 32.024947  
2002-12-17 08:36:12 51°19.047 2°48.694 7.156609 3.189451 32.02797  
2002-12-17 08:36:17 51°19.058 2°48.668 6.88951 3.192926 32.054401  
2002-12-17 08:36:21 51°19.067 2°48.647 7.34533 3.195874 32.073341  
2002-12-17 08:36:26 51°19.077 2°48.621 7.071807 3.198717 32.087845  
2002-12-17 08:36:32 51°19.09 2°48.591 7.036263 3.200717 32.096237  
2002-12-17 08:36:37 51°19.1 2°48.564 7.036263 3.200717 32.096237  
2002-12-17 08:36:41 51°19.108 2°48.544 7.166509 3.203876 32.115857  
2002-12-17 08:36:47 51°19.121 2°48.513 7.42035 3.205034 32.114887  
2002-12-17 08:36:51 51°19.129 2°48.492 6.909146 3.20893 32.145919  
2002-12-17 08:36:57 51°19.142 2°48.46 7.198649 3.211773 32.164442  
2002-12-17 08:37:01 51°19.15 2°48.44 7.001584 3.21251 32.164481  
2002-12-17 08:37:06 51°19.161 2°48.414 7.001584 3.21251 32.164481  
2002-12-17 08:37:12 51°19.173 2°48.383 6.928923 3.214827 32.182848  
2002-12-17 08:37:17 51°19.183 2°48.357 7.134843 3.216722 32.193284  
2002-12-17 08:37:22 51°19.193 2°48.331 7.34054 3.219354 32.212699  
2002-12-17 08:37:26 51°19.202 2°48.31 7.428794 3.22125 32.223938  
2002-12-17 08:37:31 51°19.212 2°48.284 7.554055 3.221355 32.216967  
2002-12-17 08:37:37 51°19.225 2°48.252 7.554055 3.221355 32.216967  
2002-12-17 08:37:41 51°19.234 2°48.231 7.161314 3.223987 32.240434  
2002-12-17 08:37:46 51°19.244 2°48.205 7.166166 3.22483 32.244068  
2002-12-17 08:37:51 51°19.255 2°48.179 7.131656 3.226093 32.25318  
2002-12-17 08:37:57 51°19.268 2°48.148 7.41581 3.227252 32.259496  
2002-12-17 08:38:01 51°19.277 2°48.127 7.018287 3.228515 32.266976  
2002-12-17 08:38:06 51°19.287 2°48.101 7.018287 3.228515 32.266976  
2002-12-17 08:38:11 51°19.298 2°48.074 7.144991 3.229252 32.268625  
2002-12-17 08:38:17 51°19.311 2°48.044 6.984729 3.230516 32.276915  
2002-12-17 08:38:21 51°19.319 2°48.023 7.466022 3.231463 32.280893  
2002-12-17 08:38:26 51°19.33 2°47.997 7.228717 3.232516 32.287663  
2002-12-17 08:38:31 51°19.341 2°47.97 7.235522 3.231569 32.273109  
2002-12-17 08:38:37 51°19.354 2°47.939 7.235522 3.231569 32.273109  
2002-12-17 08:38:41 51°19.362 2°47.917 7.198649 3.233991 32.295837  
2002-12-17 08:38:46 51°19.373 2°47.892 7.199972 3.233569 32.287109  
2002-12-17 08:38:51 51°19.383 2°47.865 7.196494 3.235254 32.304934  
2002-12-17 08:38:57 51°19.396 2°47.833 7.550742 3.235465 32.305635  
2002-12-17 08:39:02 51°19.406 2°47.807 7.670416 3.236412 32.312863  
2002-12-17 08:39:07 51°19.417 2°47.78 7.670416 3.236412 32.312863  
2002-12-17 08:39:10 51°19.423 2°47.764 7.429477 3.235675 32.299827  
2002-12-17 08:39:17 51°19.437 2°47.728 7.229892 3.237465 32.316371  
2002-12-17 08:39:21 51°19.445 2°47.706 7.712558 3.237992 32.32138  
2002-12-17 08:39:27 51°19.458 2°47.675 7.756809 3.238097 32.323359  
2002-12-17 08:39:31 51°19.466 2°47.654 7.28661 3.237676 32.320328  
2002-12-17 08:39:37 51°19.479 2°47.623 7.28661 3.237676 32.320328  
2002-12-17 08:39:42 51°19.489 2°47.597 7.218729 3.237676 32.32277  
2002-12-17 08:39:46 51°19.498 2°47.576 7.15406 3.237149 32.316947  
2002-12-17 08:39:52 51°19.511 2°47.544 7.285045 3.237781 32.323935  
2002-12-17 08:39:57 51°19.521 2°47.517 7.133421 3.238518 32.329646  
2002-12-17 08:40:02 51°19.531 2°47.49 7.019122 3.23915 32.331748  
2002-12-17 08:40:05 51°19.538 2°47.474 7.019122 3.23915 32.331748  
2002-12-17 08:40:12 51°19.552 2°47.437 7.140775 3.240835 32.342237  
2002-12-17 08:40:17 51°19.563 2°47.411 7.26298 3.243257 32.359244  
2002-12-17 08:40:22 51°19.573 2°47.384 7.302799 3.245047 32.370074  
2002-12-17 08:40:27 51°19.584 2°47.357 7.420057 3.246627 32.376943  
2002-12-17 08:40:31 51°19.592 2°47.336 7.492357 3.248206 32.385439  
2002-12-17 08:40:37 51°19.605 2°47.303 7.492357 3.248206 32.385439  
2002-12-17 08:40:42 51°19.615 2°47.278 7.082554 3.24947 32.394513  
2002-12-17 08:40:46 51°19.625 2°47.256 7.435041 3.250101 32.398235  
2002-12-17 08:40:50 51°19.634 2°47.234 6.989594 3.250417 32.399281  
2002-12-17 08:40:57 51°19.649 2°47.197 7.825092 3.250417 32.397652  
2002-12-17 08:41:01 51°19.657 2°47.176 7.064199 3.250312 32.399747  
2002-12-17 08:41:05 51°19.666 2°47.154 7.064199 3.250312 32.399747  
2002-12-17 08:41:12 51°19.68 2°47.117 7.49538 3.249575 32.39649  
2002-12-17 08:41:17 51°19.691 2°47.09 7.769481 3.248417 32.390209  
2002-12-17 08:41:22 51°19.701 2°47.063 7.251724 3.247153 32.383576  
2002-12-17 08:41:26 51°19.71 2°47.042 7.28392 3.246205 32.378804  
2002-12-17 08:41:32 51°19.723 2°47.01 7.079364 3.245574 32.375893  
2002-12-17 08:41:37 51°19.734 2°46.984 7.079364 3.245574 32.375893  
2002-12-17 08:41:41 51°19.743 2°46.962 7.50864 3.244415 32.365533  
2002-12-17 08:41:45 51°19.751 2°46.941 7.498695 3.244205 32.368907  
2002-12-17 08:41:51 51°19.764 2°46.909 8.119475 3.243362 32.362851  
2002-12-17 08:41:57 51°19.777 2°46.877 7.308324 3.243046 32.363432  
2002-12-17 08:42:01 51°19.786 2°46.855 7.409415 3.241993 32.355861  
2002-12-17 08:42:06 51°19.797 2°46.828 7.409415 3.241993 32.355861  
2002-12-17 08:42:12 51°19.809 2°46.796 7.19478 3.222933 32.150854  
2002-12-17 08:42:17 51°19.82 2°46.769 7.262246 3.239256 32.341057  
2002-12-17 08:42:22 51°19.83 2°46.743 7.293213 3.236412 32.320191  
2002-12-17 08:42:26 51°19.839 2°46.722 7.166803 3.234938 32.317725  
2002-12-17 08:42:32 51°19.85 2°46.689 7.151119 3.231779 32.294974  
2002-12-17 08:42:37 51°19.86 2°46.662 7.151119 3.231779 32.294974  
2002-12-17 08:42:41 51°19.868 2°46.639 7.171949 3.229779 32.286668  
2002-12-17 08:42:46 51°19.879 2°46.613 7.160579 3.22683 32.264601  
2002-12-17 08:42:51 51°19.888 2°46.586 6.941859 3.225462 32.264912  
2002-12-17 08:42:57 51°19.9 2°46.553 7.055952 3.223356 32.248905  
2002-12-17 08:43:02 51°19.911 2°46.526 7.135137 3.221355 32.235689  
2002-12-17 08:43:06 51°19.918 2°46.504 7.135137 3.221355 32.235689  
2002-12-17 08:43:12 51°19.93 2°46.472 7.214665 3.21946 32.227709  
2002-12-17 08:43:17 51°19.94 2°46.445 7.457437 3.216933 32.213531  
2002-12-17 08:43:21 51°19.948 2°46.423 6.977406 3.214827 32.204833  
2002-12-17 08:43:25 51°19.956 2°46.402 7.262246 3.211984 32.183875  
2002-12-17 08:43:31 51°19.967 2°46.37 7.708185 3.210826 32.17998  
2002-12-17 08:43:37 51°19.978 2°46.337 7.708185 3.210826 32.17998  
2002-12-17 08:43:42 51°19.987 2°46.309 7.277658 3.207877 32.149696  
2002-12-17 08:43:46 51°19.994 2°46.286 6.967968 3.209667 32.171196  
2002-12-17 08:43:50 51°20.001 2°46.263 7.139501 3.209878 32.174348  
2002-12-17 08:43:57 51°20.014 2°46.226 7.222352 3.210404 32.180193  
2002-12-17 08:44:02 51°20.022 2°46.198 7.269341 3.210826 32.18161  
2002-12-17 08:44:06 51°20.029 2°46.175 7.269341 3.210826 32.18161  
2002-12-17 08:44:11 51°20.038 2°46.148 7.278147 3.211563 32.186533  
2002-12-17 08:44:17 51°20.049 2°46.114 6.845886 3.213037 32.194747  
2002-12-17 08:44:22 51°20.058 2°46.086 7.260973 3.214511 32.202143  
2002-12-17 08:44:26 51°20.065 2°46.065 7.633891 3.215564 32.207308  
2002-12-17 08:44:32 51°20.076 2°46.032 7.159207 3.216722 32.214454  
2002-12-17 08:44:37 51°20.085 2°46.005 7.159207 3.216722 32.214454  
2002-12-17 08:44:42 51°20.094 2°45.977 7.126948 3.217249 32.214591  
2002-12-17 08:44:46 51°20.1 2°45.954 7.379969 3.217986 32.21462  
2002-12-17 08:44:50 51°20.107 2°45.933 6.992543 3.220197 32.230179  
2002-12-17 08:44:57 51°20.12 2°45.894 6.808935 3.222829 32.248772  
2002-12-17 08:45:01 51°20.128 2°45.872 7.511077 3.224409 32.256502  
2002-12-17 08:45:05 51°20.135 2°45.85 7.511077 3.224409 32.256502  
2002-12-17 08:45:10 51°20.143 2°45.821 7.139746 3.225567 32.262005  
2002-12-17 08:45:17 51°20.154 2°45.782 7.448753 3.226725 32.264249  
2002-12-17 08:45:21 51°20.16 2°45.759 7.596516 3.229673 32.287132  
2002-12-17 08:45:27 51°20.169 2°45.725 7.534372 3.23041 32.281448  
2002-12-17 08:45:31 51°20.175 2°45.702 7.508786 3.234517 32.313063  
2002-12-17 08:45:37 51°20.183 2°45.668 7.508786 3.234517 32.313063  
2002-12-17 08:45:42 51°20.189 2°45.638 7.368392 3.237255 32.324625  
2002-12-17 08:45:46 51°20.194 2°45.615 7.716348 3.242204 32.353302  
2002-12-17 08:45:52 51°20.203 2°45.58 7.221324 3.247153 32.385205  
2002-12-17 08:45:57 51°20.209 2°45.551 7.528038 3.250839 32.403119  
2002-12-17 08:46:02 51°20.216 2°45.522 7.569202 3.254314 32.425206  
2002-12-17 08:46:06 51°20.221 2°45.498 7.569202 3.254314 32.425206  
2002-12-17 08:46:12 51°20.226 2°45.463 7.61506 3.254629 32.411596  
2002-12-17 08:46:17 51°20.232 2°45.433 7.804426 3.257367 32.417397  
2002-12-17 08:46:22 51°20.238 2°45.404 7.872707 3.265581 32.488445  
2002-12-17 08:46:26 51°20.243 2°45.381 7.308227 3.268529 32.497333  
2002-12-17 08:46:32 51°20.25 2°45.346 7.618321 3.271899 32.512482  
2002-12-17 08:46:37 51°20.257 2°45.318 7.618321 3.271899 32.512482  
2002-12-17 08:46:42 51°20.263 2°45.289 8.112087 3.274532 32.517874  
2002-12-17 08:46:47 51°20.27 2°45.261 7.917138 3.274847 32.493719  
2002-12-17 08:46:50 51°20.274 2°45.243 8.086102 3.28759 32.607828  
2002-12-17 08:46:57 51°20.283 2°45.202 7.994202 3.292645 32.636526  
2002-12-17 08:47:01 51°20.286 2°45.179 7.796128 3.297384 32.661722  
2002-12-17 08:47:06 51°20.294 2°45.15 7.796128 3.297384 32.661722  
2002-12-17 08:47:11 51°20.298 2°45.121 8.072236 3.308336 32.723316  
2002-12-17 08:47:17 51°20.306 2°45.086 8.554438 3.312127 32.696584  
2002-12-17 08:47:22 51°20.312 2°45.057 7.802291 3.324554 32.779781  
2002-12-17 08:47:26 51°20.318 2°45.035 8.190268 3.33972 32.892711  
2002-12-17 08:47:30 51°20.325 2°45.012 7.915394 3.349725 32.945822  
2002-12-17 08:47:37 51°20.339 2°44.977 7.915394 3.349725 32.945822  
2002-12-17 08:47:42 51°20.349 2°44.952 8.373091 3.355201 32.958393  
2002-12-17 08:47:45 51°20.356 2°44.938 8.107499 3.365418 33.038  
2002-12-17 08:47:51 51°20.369 2°44.907 8.150948 3.365417 33.007112  
2002-12-17 08:47:57 51°20.381 2°44.877 8.405595 3.375529 33.087872  
2002-12-17 08:48:01 51°20.388 2°44.857 8.251299 3.374791 33.05629  
2002-12-17 08:48:06 51°20.398 2°44.833 8.251299 3.374791 33.05629  
2002-12-17 08:48:11 51°20.406 2°44.81 8.134248 3.381532 33.116561  
2002-12-17 08:48:17 51°20.416 2°44.785 7.912004 3.380479 33.086432  
2002-12-17 08:48:21 51°20.423 2°44.769 8.114067 3.390274 33.179019  
2002-12-17 08:48:27 51°20.431 2°44.747 7.803989 3.387851 33.138889  
2002-12-17 08:48:31 51°20.437 2°44.733 7.930408 3.393434 33.191368  
2002-12-17 08:48:37 51°20.445 2°44.713 7.930408 3.393434 33.191368  
2002-12-17 08:48:42 51°20.451 2°44.697 8.090112 3.39217 33.17033  
2002-12-17 08:48:46 51°20.455 2°44.685 8.055902 3.396173 33.205641  
2002-12-17 08:48:52 51°20.462 2°44.668 8.219778 3.398595 33.224611  
2002-12-17 08:48:57 51°20.466 2°44.655 8.382036 3.396067 33.189865  
2002-12-17 08:49:02 51°20.47 2°44.642 8.110542 3.399964 33.225639  
2002-12-17 08:49:06 51°20.474 2°44.632 8.110542 3.399964 33.225639  
2002-12-17 08:49:10 51°20.477 2°44.622 8.309913 3.398068 33.196947  
2002-12-17 08:49:17 51°20.481 2°44.606 8.43222 3.402598 33.243628  
2002-12-17 08:49:21 51°20.484 2°44.597 8.709734 3.402176 33.232553  
2002-12-17 08:49:27 51°20.488 2°44.583 8.475834 3.402808 33.234528  
2002-12-17 08:49:31 51°20.49 2°44.575 8.165087 3.405125 33.255587  
2002-12-17 08:49:37 51°20.494 2°44.564 8.165087 3.405125 33.255587  
2002-12-17 08:49:41 51°20.496 2°44.556 8.602523 3.404809 33.247282  
2002-12-17 08:49:47 51°20.499 2°44.544 8.645017 3.405336 33.250552  
2002-12-17 08:49:51 51°20.501 2°44.537 8.137386 3.408707 33.28465  
2002-12-17 08:49:57 51°20.504 2°44.526 8.219875 3.407127 33.263456  
2002-12-17 08:50:01 51°20.506 2°44.519 8.303751 3.409128 33.281894  
2002-12-17 08:50:06 51°20.509 2°44.51 8.303751 3.409128 33.281894  
2002-12-17 08:50:12 51°20.512 2°44.501 8.388095 3.409971 33.286145  
2002-12-17 08:50:17 51°20.514 2°44.492 8.154471 3.411551 33.300827  
2002-12-17 08:50:22 51°20.516 2°44.484 8.076633 3.409233 33.270837  
2002-12-17 08:50:26 51°20.517 2°44.476 8.51678 3.412709 33.305245  
2002-12-17 08:50:32 51°20.52 2°44.466 8.640275 3.414079 33.316012  
2002-12-17 08:50:37 51°20.522 2°44.457 8.640275 3.414079 33.316012  
2002-12-17 08:50:42 51°20.524 2°44.448 8.21192 3.415237 33.322054  
2002-12-17 08:50:47 51°20.526 2°44.44 8.414535 3.413341 33.296636  
2002-12-17 08:50:51 51°20.528 2°44.432 8.340909 3.416923 33.331357  
2002-12-17 08:50:57 51°20.53 2°44.421 8.547388 3.415869 33.317508  
2002-12-17 08:51:01 51°20.531 2°44.414 8.757129 3.417976 33.33544  
2002-12-17 08:51:06 51°20.532 2°44.404 8.757129 3.417976 33.33544  
2002-12-17 08:51:12 51°20.534 2°44.393 8.176038 3.418397 33.336748  
2002-12-17 08:51:17 51°20.535 2°44.384 8.147715 3.420293 33.35158  
2002-12-17 08:51:21 51°20.537 2°44.376 8.392374 3.421136 33.35582  
2002-12-17 08:51:26 51°20.538 2°44.367 8.204012 3.422927 33.367879  
2002-12-17 08:51:31 51°20.538 2°44.358 8.761528 3.423664 33.366907  
2002-12-17 08:51:37 51°20.539 2°44.346 8.761528 3.423664 33.366907  
2002-12-17 08:51:41 51°20.54 2°44.339 8.650572 3.423664 33.358772  
2002-12-17 08:51:45 51°20.541 2°44.331 8.102187 3.426086 33.374408  
2002-12-17 08:51:51 51°20.542 2°44.32 8.301825 3.426929 33.373762  
2002-12-17 08:51:57 51°20.543 2°44.308 7.954084 3.429773 33.39801  
2002-12-17 08:52:02 51°20.544 2°44.298 8.509917 3.429773 33.388251  
2002-12-17 08:52:06 51°20.545 2°44.291 8.509917 3.429773 33.388251  
2002-12-17 08:52:11 51°20.546 2°44.281 8.711791 3.434092 33.427616  
2002-12-17 08:52:17 51°20.547 2°44.269 8.791829 3.434935 33.430214  
2002-12-17 08:52:22 51°20.548 2°44.259 8.084943 3.436199 33.439807  
2002-12-17 08:52:26 51°20.548 2°44.252 9.261926 3.437779 33.451185  
2002-12-17 08:52:30 51°20.549 2°44.244 8.954659 3.439359 33.464189  
2002-12-17 08:52:37 51°20.55 2°44.229 8.954659 3.439359 33.464189  
2002-12-17 08:52:41 51°20.551 2°44.221 8.566906 3.439464 33.460443  
2002-12-17 08:52:45 51°20.552 2°44.211 8.212498 3.441149 33.474581  
2002-12-17 08:52:51 51°20.553 2°44.195 8.4511 3.44136 33.473601  
2002-12-17 08:52:57 51°20.556 2°44.176 8.136806 3.443362 33.492779  
2002-12-17 08:53:02 51°20.56 2°44.159 8.373668 3.44273 33.484323  
2002-12-17 08:53:06 51°20.564 2°44.145 8.373668 3.44273 33.484323  
2002-12-17 08:53:12 51°20.573 2°44.123 8.137289 3.44136 33.466275  
2002-12-17 08:53:17 51°20.582 2°44.104 8.216837 3.445468 33.508206  
2002-12-17 08:53:21 51°20.591 2°44.09 8.651578 3.443678 33.486421  
2002-12-17 08:53:26 51°20.604 2°44.073 8.495422 3.444626 33.494217  
2002-12-17 08:53:31 51°20.618 2°44.059 8.177823 3.445047 33.497139  
2002-12-17 08:53:37 51°20.637 2°44.045 8.177823 3.445047 33.497139  
2002-12-17 08:53:41 51°20.65 2°44.038 8.335519 3.445468 33.501689  
2002-12-17 08:53:47 51°20.671 2°44.031 8.448795 3.445574 33.501198  
2002-12-17 08:53:51 51°20.685 2°44.027 8.209123 3.443677 33.478282  
2002-12-17 08:53:57 51°20.707 2°44.024 8.602283 3.447259 33.514512  
2002-12-17 08:54:02 51°20.725 2°44.022 8.206616 3.446206 33.502323  
2002-12-17 08:54:05 51°20.736 2°44.02 8.206616 3.446206 33.502323  
2002-12-17 08:54:11 51°20.758 2°44.016 8.60051 3.446206 33.503138  
2002-12-17 08:54:17 51°20.78 2°44.01 8.286849 3.447154 33.515818  
2002-12-17 08:54:22 51°20.797 2°44.003 8.644394 3.445995 33.506563  
2002-12-17 08:54:26 51°20.811 2°43.995 8.253419 3.446206 33.508838  
2002-12-17 08:54:32 51°20.833 2°43.983 8.178257 3.442519 33.471466  
2002-12-17 08:54:37 51°20.85 2°43.974 8.178257 3.442519 33.471466  
2002-12-17 08:54:42 51°20.867 2°43.964 8.218862 3.445363 33.504624  
2002-12-17 08:54:46 51°20.881 2°43.956 8.103056 3.443994 33.490648  
2002-12-17 08:54:50 51°20.895 2°43.948 8.265126 3.445468 33.507391  
2002-12-17 08:54:57 51°20.919 2°43.934 8.031684 3.446943 33.520876  
2002-12-17 08:55:01 51°20.933 2°43.926 8.743933 3.446416 33.511928  
2002-12-17 08:55:05 51°20.947 2°43.917 8.743933 3.446416 33.511928  
2002-12-17 08:55:10 51°20.964 2°43.908 8.632468 3.445152 33.495834  
2002-12-17 08:55:17 51°20.988 2°43.893 8.835058 3.447891 33.523781  
2002-12-17 08:55:22 51°21.006 2°43.883 8.524217 3.448839 33.529945  
2002-12-17 08:55:27 51°21.024 2°43.872 8.845849 3.450209 33.542288  
2002-12-17 08:55:31 51°21.038 2°43.865 8.532997 3.450525 33.541625  
2002-12-17 08:55:37 51°21.06 2°43.852 8.532997 3.450525 33.541625  
2002-12-17 08:55:41 51°21.074 2°43.844 8.145784 3.450735 33.539825  
2002-12-17 08:55:47 51°21.095 2°43.831 8.308421 3.451157 33.5403  
2002-12-17 08:55:51 51°21.109 2°43.823 8.823167 3.451157 33.536227  
2002-12-17 08:55:57 51°21.13 2°43.81 8.632564 3.452526 33.545305  
2002-12-17 08:56:02 51°21.147 2°43.799 8.176473 3.45221 33.537009  
2002-12-17 08:56:05 51°21.157 2°43.792 8.176473 3.45221 33.537009  
2002-12-17 08:56:11 51°21.178 2°43.779 8.764061 3.453579 33.547714  
2002-12-17 08:56:17 51°21.199 2°43.765 8.382036 3.454106 33.547696  
2002-12-17 08:56:21 51°21.212 2°43.757 8.625378 3.454422 33.547848  
2002-12-17 08:56:27 51°21.233 2°43.743 8.597251 3.455791 33.557735  
2002-12-17 08:56:31 51°21.247 2°43.735 8.487885 3.45695 33.563719  
2002-12-17 08:56:37 51°21.267 2°43.721 8.487885 3.45695 33.563719  
2002-12-17 08:56:42 51°21.285 2°43.71 8.614551 3.45853 33.575059  
2002-12-17 08:56:46 51°21.299 2°43.702 8.741255 3.459478 33.577953  
2002-12-17 08:56:52 51°21.32 2°43.689 8.551513 3.460953 33.586525  
2002-12-17 08:56:57 51°21.337 2°43.679 8.439138 3.460953 33.57757  
2002-12-17 08:57:02 51°21.355 2°43.667 8.525513 3.46306 33.592136  
2002-12-17 08:57:06 51°21.369 2°43.659 8.525513 3.46306 33.592136  
2002-12-17 08:57:10 51°21.383 2°43.65 8.490238 3.465061 33.605562  
2002-12-17 08:57:17 51°21.407 2°43.635 8.574146 3.46464 33.591258  
2002-12-17 08:57:21 51°21.421 2°43.627 8.618096 3.464324 33.580535  
2002-12-17 08:57:27 51°21.442 2°43.614 8.500798 3.466325 33.595582  
2002-12-17 08:57:31 51°21.456 2°43.605 8.781268 3.467694 33.60382  
2002-12-17 08:57:37 51°21.477 2°43.591 8.781268 3.467694 33.60382  
2002-12-17 08:57:41 51°21.49 2°43.582 8.708442 3.4678 33.600075  
2002-12-17 08:57:47 51°21.512 2°43.57 8.513037 3.468221 33.598107  
2002-12-17 08:57:51 51°21.525 2°43.56 8.319059 3.469064 33.6023  
2002-12-17 08:57:57 51°21.545 2°43.547 8.517548 3.469801 33.606171  
2002-12-17 08:58:02 51°21.562 2°43.537 8.951132 3.471487 33.621055  
2002-12-17 08:58:06 51°21.576 2°43.529 8.951132 3.471487 33.621055  
2002-12-17 08:58:11 51°21.593 2°43.519 8.522826 3.470749 33.608245  
2002-12-17 08:58:17 51°21.614 2°43.506 8.563502 3.470855 33.606128  
2002-12-17 08:58:21 51°21.628 2°43.498 8.290076 3.471908 33.614209  
2002-12-17 08:58:27 51°21.648 2°43.485 9.075657 3.471592 33.605936  
2002-12-17 08:58:31 51°21.662 2°43.476 8.764731 3.472435 33.61175  
2002-12-17 08:58:37 51°21.682 2°43.464 8.764731 3.472435 33.61175  
2002-12-17 08:58:42 51°21.699 2°43.453 8.334316 3.471803 33.604141  
2002-12-17 08:58:45 51°21.709 2°43.446 9.157147 3.471486 33.59993  
2002-12-17 08:58:51 51°21.729 2°43.434 8.49187 3.471908 33.600402  
2002-12-17 08:58:57 51°21.75 2°43.421 8.333498 3.472645 33.607518  
2002-12-17 08:59:01 51°21.764 2°43.413 9.118222 3.473488 33.614143  
2002-12-17 08:59:05 51°21.778 2°43.404 9.118222 3.473488 33.614143  
2002-12-17 08:59:11 51°21.798 2°43.392 8.373524 3.471908 33.596343  
2002-12-17 08:59:17 51°21.818 2°43.38 8.531222 3.469801 33.572883  
2002-12-17 08:59:22 51°21.834 2°43.37 8.959997 3.472224 33.598929  
2002-12-17 08:59:26 51°21.847 2°43.362 8.722889 3.470644 33.579508  
2002-12-17 08:59:31 51°21.863 2°43.352 8.721741 3.471802 33.591964  
2002-12-17 08:59:37 51°21.882 2°43.34 8.721741 3.471802 33.591964  
2002-12-17 08:59:41 51°21.895 2°43.332 8.248504 3.471697 33.592455  
2002-12-17 08:59:46 51°21.911 2°43.322 8.638455 3.473172 33.607498  
2002-12-17 08:59:51 51°21.928 2°43.312 8.361596 3.471908 33.593908  
2002-12-17 08:59:57 51°21.948 2°43.301 8.635965 3.47117 33.585981  
2002-12-17 09:00:02 51°21.966 2°43.291 8.47521 3.471697 33.592455  
2002-12-17 09:00:06 51°21.979 2°43.283 8.47521 3.471697 33.592455  
2002-12-17 09:00:12 51°22 2°43.272 8.903974 3.47096 33.586151  
2002-12-17 09:00:17 51°22.017 2°43.262 8.941837 3.469485 33.57273  
2002-12-17 09:00:22 51°22.035 2°43.253 8.745081 3.470644 33.587622  
2002-12-17 09:00:26 51°22.049 2°43.245 8.271003 3.470222 33.584715  
2002-12-17 09:00:32 51°22.07 2°43.233 8.938261 3.468853 33.572425  
2002-12-17 09:00:37 51°22.087 2°43.223 8.938261 3.468853 33.572425  
2002-12-17 09:00:42 51°22.105 2°43.213 9.016782 3.469064 33.576313  
2002-12-17 09:00:46 51°22.119 2°43.204 8.389826 3.469064 33.578747  
2002-12-17 09:00:51 51°22.136 2°43.193 8.509389 3.468431 33.574385  
2002-12-17 09:00:57 51°22.157 2°43.182 8.980868 3.467905 33.570344  
2002-12-17 09:01:02 51°22.174 2°43.171 8.787051 3.467483 33.566624  
2002-12-17 09:01:06 51°22.188 2°43.163 8.787051 3.467483 33.566624  
2002-12-17 09:01:12 51°22.209 2°43.152 8.394105 3.467905 33.570344  
2002-12-17 09:01:17 51°22.227 2°43.142 8.866471 3.468537 33.577141  
2002-12-17 09:01:22 51°22.244 2°43.131 8.67432 3.467905 33.570344  
2002-12-17 09:01:26 51°22.259 2°43.124 9.264393 3.468221 33.572931  
2002-12-17 09:01:32 51°22.28 2°43.112 9.034064 3.466851 33.557393  
2002-12-17 09:01:37 51°22.298 2°43.102 9.034064 3.466851 33.557393  
2002-12-17 09:01:41 51°22.312 2°43.093 8.331188 3.468642 33.575839  
2002-12-17 09:01:45 51°22.326 2°43.085 8.727721 3.468537 33.573083  
2002-12-17 09:01:52 51°22.35 2°43.07 8.926151 3.468747 33.573726  
2002-12-17 09:01:57 51°22.368 2°43.06 8.34163 3.468642 33.570971  
2002-12-17 09:02:02 51°22.385 2°43.049 8.813853 3.468958 33.571935  
2002-12-17 09:02:06 51°22.399 2°43.041 8.813853 3.468958 33.571935  
2002-12-17 09:02:10 51°22.412 2°43.032 8.659143 3.468853 33.568369  
2002-12-17 09:02:17 51°22.435 2°43.018 8.662926 3.469801 33.573694  
2002-12-17 09:02:21 51°22.448 2°43.01 8.310346 3.470538 33.579998  
2002-12-17 09:02:27 51°22.468 2°42.998 8.311887 3.470644 33.576264  
2002-12-17 09:02:32 51°22.485 2°42.988 8.432748 3.472329 33.591946  
2002-12-17 09:02:37 51°22.502 2°42.978 8.432748 3.472329 33.591946  
2002-12-17 09:02:42 51°22.52 2°42.968 8.120247 3.47254 33.590154  
2002-12-17 09:02:45 51°22.53 2°42.963 8.596341 3.472224 33.584325  
2002-12-17 09:02:50 51°22.548 2°42.953 8.244504 3.472856 33.588684  
2002-12-17 09:02:57 51°22.572 2°42.939 8.874918 3.473488 33.593853  
2002-12-17 09:03:01 51°22.586 2°42.931 8.527288 3.473172 33.591268  
2002-12-17 09:03:07 51°22.608 2°42.919 8.527288 3.473172 33.591268  
2002-12-17 09:03:11 51°22.622 2°42.911 8.726381 3.473488 33.589798  
2002-12-17 09:03:17 51°22.643 2°42.899 8.926294 3.473488 33.588987  
2002-12-17 09:03:21 51°22.656 2°42.891 8.635629 3.474857 33.601267  
2002-12-17 09:03:27 51°22.677 2°42.879 8.975389 3.474541 33.593818  
2002-12-17 09:03:31 51°22.691 2°42.871 8.429048 3.475489 33.601569  
2002-12-17 09:03:37 51°22.712 2°42.859 8.429048 3.475489 33.601569  
2002-12-17 09:03:41 51°22.726 2°42.851 9.176293 3.476648 33.610772  
2002-12-17 09:03:45 51°22.739 2°42.843 8.712174 3.475594 33.595404  
2002-12-17 09:03:51 51°22.76 2°42.831 8.793788 3.477491 33.610903  
2002-12-17 09:03:57 51°22.781 2°42.819 8.640084 3.478544 33.618161  
2002-12-17 09:04:01 51°22.795 2°42.812 8.524985 3.479387 33.624777  
2002-12-17 09:04:06 51°22.813 2°42.802 8.524985 3.479387 33.624777  
2002-12-17 09:04:12 51°22.834 2°42.79 8.646023 3.480124 33.627829  
2002-12-17 09:04:17 51°22.851 2°42.78 8.648657 3.480546 33.629109  
2002-12-17 09:04:21 51°22.866 2°42.772 8.769845 3.481283 33.632971  
2002-12-17 09:04:27 51°22.887 2°42.76 8.341053 3.481599 33.63312  
2002-12-17 09:04:32 51°22.905 2°42.75 8.502478 3.482126 33.636341  
2002-12-17 09:04:37 51°22.923 2°42.74 8.502478 3.482126 33.636341  
2002-12-17 09:04:41 51°22.937 2°42.733 8.387903 3.482652 33.638751  
2002-12-17 09:04:47 51°22.959 2°42.72 8.590733 3.482652 33.635508  
2002-12-17 09:04:52 51°22.977 2°42.711 9.104338 3.483495 33.642931  
2002-12-17 09:04:57 51°22.995 2°42.701 8.44327 3.485181 33.656963  
2002-12-17 09:05:02 51°23.013 2°42.691 8.763535 3.48497 33.651459  
2002-12-17 09:05:06 51°23.027 2°42.683 8.763535 3.48497 33.651459  
2002-12-17 09:05:12 51°23.048 2°42.672 8.925578 3.485497 33.653057  
2002-12-17 09:05:17 51°23.066 2°42.662 8.971005 3.48655 33.659494  
2002-12-17 09:05:22 51°23.084 2°42.652 8.780838 3.487393 33.66367  
2002-12-17 09:05:27 51°23.101 2°42.643 8.708442 3.488762 33.674305  
2002-12-17 09:05:31 51°23.116 2°42.635 8.991063 3.489184 33.673959  
2002-12-17 09:05:37 51°23.137 2°42.623 8.991063 3.489184 33.673959  
2002-12-17 09:05:42 51°23.155 2°42.613 8.844082 3.49108 33.688618  
2002-12-17 09:05:46 51°23.169 2°42.606 8.848809 3.491607 33.68859  
2002-12-17 09:05:52 51°23.19 2°42.594 8.8585 3.491396 33.682278  
2002-12-17 09:05:57 51°23.208 2°42.584 8.863034 3.493398 33.69725  
2002-12-17 09:06:01 51°23.222 2°42.575 9.48918 3.494556 33.703185  
2002-12-17 09:06:06 51°23.24 2°42.566 9.48918 3.494556 33.703185  
2002-12-17 09:06:11 51°23.257 2°42.556 8.678054 3.496663 33.719279  
2002-12-17 09:06:17 51°23.279 2°42.545 9.189591 3.497822 33.723588  
2002-12-17 09:06:22 51°23.297 2°42.535 9.077703 3.499297 33.731281  
2002-12-17 09:06:26 51°23.311 2°42.527 9.005972 3.374257 32.391746  
2002-12-17 09:06:31 51°23.329 2°42.517 8.892954 3.376785 32.412442  
2002-12-17 09:06:37 51°23.351 2°42.505 8.892954 3.376785 32.412442  
2002-12-17 09:06:42 51°23.369 2°42.496 8.661873 3.504248 33.769718  
2002-12-17 09:06:47 51°23.387 2°42.487 8.939262 3.505302 33.775322  
2002-12-17 09:06:51 51°23.402 2°42.48 8.868046 3.506566 33.783991  
2002-12-17 09:06:57 51°23.423 2°42.468 8.558515 3.507303 33.786208  
2002-12-17 09:07:01 51°23.438 2°42.461 8.799187 3.508462 33.793746  
2002-12-17 09:07:06 51°23.456 2°42.451 8.799187 3.508462 33.793746  
2002-12-17 09:07:12 51°23.477 2°42.439 8.764109 3.509516 33.799344  
2002-12-17 09:07:17 51°23.495 2°42.429 9.548951 3.510148 33.803676  
2002-12-17 09:07:22 51°23.514 2°42.419 8.579899 3.511517 33.812655  
2002-12-17 09:07:26 51°23.528 2°42.411 8.545086 3.511939 33.813108  
2002-12-17 09:07:31 51°23.545 2°42.402 8.431403 3.513203 33.821768  
2002-12-17 09:07:37 51°23.567 2°42.39 8.431403 3.513203 33.821768  
2002-12-17 09:07:41 51°23.581 2°42.382 8.514524 3.514362 33.829299  
2002-12-17 09:07:47 51°23.602 2°42.37 8.911558 3.515521 33.83764  
2002-12-17 09:07:52 51°23.62 2°42.361 8.723224 3.516574 33.842418  
2002-12-17 09:07:57 51°23.637 2°42.351 8.922288 3.517628 33.848006  
2002-12-17 09:08:01 51°23.652 2°42.344 8.926294 3.518681 33.854405  
2002-12-17 09:08:07 51°23.673 2°42.332 8.926294 3.518681 33.854405  
2002-12-17 09:08:10 51°23.684 2°42.327 9.321433 3.519208 33.858415  
2002-12-17 09:08:17 51°23.709 2°42.313 8.586419 3.520156 33.862062  
2002-12-17 09:08:21 51°23.723 2°42.305 8.512365 3.521947 33.875531  
2002-12-17 09:08:27 51°23.744 2°42.293 9.142559 3.523001 33.881112  
2002-12-17 09:08:32 51°23.761 2°42.284 8.678389 3.523633 33.885435  
2002-12-17 09:08:37 51°23.779 2°42.273 8.678389 3.523633 33.885435  
2002-12-17 09:08:41 51°23.793 2°42.266 9.305364 3.524791 33.890517  
2002-12-17 09:08:47 51°23.814 2°42.254 8.764109 3.525424 33.894838  
2002-12-17 09:08:51 51°23.829 2°42.246 8.927772 3.526898 33.902484  
2002-12-17 09:08:57 51°23.85 2°42.236 9.088596 3.527636 33.906306  
2002-12-17 09:09:01 51°23.865 2°42.228 9.054436 3.528584 33.91319  
2002-12-17 09:09:06 51°23.882 2°42.218 9.054436 3.528584 33.91319  
2002-12-17 09:09:09 51°23.893 2°42.212 8.864991 3.529006 33.913634  
2002-12-17 09:09:17 51°23.922 2°42.196 9.143747 3.529954 33.918894  
2002-12-17 09:09:22 51°23.939 2°42.186 9.343467 3.531218 33.926717  
2002-12-17 09:09:26 51°23.953 2°42.178 9.563259 3.531745 33.928284  
2002-12-17 09:09:32 51°23.974 2°42.165 9.084933 3.532377 33.928543  
2002-12-17 09:09:37 51°23.992 2°42.155 9.084933 3.532377 33.928543  
2002-12-17 09:09:41 51°24.006 2°42.147 9.014924 3.53343 33.935735  
2002-12-17 09:09:47 51°24.027 2°42.135 9.059575 3.534062 33.937615  
2002-12-17 09:09:51 51°24.041 2°42.126 9.222778 3.534694 33.939495  
2002-12-17 09:09:57 51°24.063 2°42.114 9.38543 3.536169 33.94956  
2002-12-17 09:10:01 51°24.077 2°42.106 9.080319 3.536907 33.951751  
2002-12-17 09:10:06 51°24.095 2°42.096 9.080319 3.536907 33.951751  
2002-12-17 09:10:12 51°24.117 2°42.084 9.164987 3.53796 33.955692  
2002-12-17 09:10:17 51°24.135 2°42.074 9.172635 3.539119 33.959946  
2002-12-17 09:10:21 51°24.149 2°42.067 9.331906 3.540383 33.967755  
2002-12-17 09:10:27 51°24.171 2°42.054 9.299154 3.541016 33.966386  
2002-12-17 09:10:32 51°24.188 2°42.045 9.070043 3.541648 33.967451  
2002-12-17 09:10:37 51°24.205 2°42.035 9.070043 3.541648 33.967451  
2002-12-17 09:10:42 51°24.223 2°42.025 9.113372 3.542385 33.968829  
2002-12-17 09:10:46 51°24.237 2°42.017 8.725712 3.543439 33.973576  
2002-12-17 09:10:52 51°24.258 2°42.005 9.004114 3.544176 33.975763  
2002-12-17 09:10:57 51°24.275 2°41.996 9.241193 3.544808 33.978448  
2002-12-17 09:11:01 51°24.29 2°41.988 8.737573 3.54544 33.978701  
2002-12-17 09:11:06 51°24.307 2°41.978 8.737573 3.54544 33.978701  
2002-12-17 09:11:12 51°24.328 2°41.965 8.819203 3.545967 33.979453  
2002-12-17 09:11:17 51°24.346 2°41.957 8.786812 3.546599 33.980517  
2002-12-17 09:11:21 51°24.36 2°41.948 9.025114 3.546494 33.975344  
2002-12-17 09:11:27 51°24.38 2°41.937 9.107001 3.547547 33.982517  
2002-12-17 09:11:29 51°24.387 2°41.932 9.071803 3.547758 33.981522  
2002-12-17 09:11:37 51°24.416 2°41.917 9.071803 3.547758 33.981522  
2002-12-17 09:11:41 51°24.43 2°41.909 9.269516 3.548495 33.985327  
2002-12-17 09:11:47 51°24.451 2°41.897 9.001066 3.549022 33.986887  
2002-12-17 09:11:51 51°24.465 2°41.889 8.692795 3.549549 33.989258  
2002-12-17 09:11:57 51°24.486 2°41.878 9.436024 3.54997 33.988887  
2002-12-17 09:12:02 51°24.504 2°41.868 9.129583 3.550286 33.988204  
2002-12-17 09:12:06 51°24.519 2°41.86 9.129583 3.550286 33.988204  
2002-12-17 09:12:11 51°24.537 2°41.85 9.365683 3.550813 33.989764  
2002-12-17 09:12:17 51°24.558 2°41.838 9.252865 3.551129 33.989891  
2002-12-17 09:12:21 51°24.572 2°41.83 9.062097 3.551445 33.98759  
2002-12-17 09:12:27 51°24.594 2°41.818 9.221972 3.552288 33.993322  
2002-12-17 09:12:32 51°24.611 2°41.808 9.302899 3.552709 33.99457  
2002-12-17 09:12:37 51°24.629 2°41.799 9.302899 3.552709 33.99457  
2002-12-17 09:12:41 51°24.643 2°41.791 9.500098 3.553236 33.998557  
2002-12-17 09:12:47 51°24.664 2°41.779 8.959473 3.553552 33.997065  
2002-12-17 09:12:50 51°24.675 2°41.774 9.273784 3.55429 34.000866  
2002-12-17 09:12:57 51°24.7 2°41.76 9.044394 3.554711 34.002921  
2002-12-17 09:13:01 51°24.714 2°41.752 9.437349 3.555133 34.00255  
2002-12-17 09:13:06 51°24.732 2°41.742 9.437349 3.555133 34.00255  
2002-12-17 09:13:12 51°24.754 2°41.731 9.012639 3.555449 34.002677  
2002-12-17 09:13:16 51°24.768 2°41.723 8.93807 3.556291 34.010832  
2002-12-17 09:13:21 51°24.786 2°41.713 9.096634 3.556607 34.008531  
2002-12-17 09:13:27 51°24.807 2°41.701 9.217035 3.557029 34.009777  
2002-12-17 09:13:31 51°24.822 2°41.693 9.103149 3.55745 34.011023  
2002-12-17 09:13:37 51°24.842 2°41.681 9.103149 3.55745 34.011023  
2002-12-17 09:13:42 51°24.86 2°41.671 9.026209 3.558609 34.018492  
2002-12-17 09:13:47 51°24.878 2°41.66 9.611734 3.559031 34.019737  
2002-12-17 09:13:52 51°24.895 2°41.65 8.913704 3.559347 34.020671  
2002-12-17 09:13:57 51°24.913 2°41.64 9.49868 3.559663 34.019988  
2002-12-17 09:14:01 51°24.927 2°41.632 9.230278 3.560506 34.025712  
2002-12-17 09:14:06 51°24.945 2°41.622 9.230278 3.560506 34.025712  
2002-12-17 09:14:11 51°24.963 2°41.612 9.464026 3.559557 34.01321  
2002-12-17 09:14:17 51°24.984 2°41.6 9.23322 3.561348 34.030626  
2002-12-17 09:14:21 51°24.999 2°41.592 9.234976 3.561243 34.026273  
2002-12-17 09:14:26 51°25.017 2°41.582 9.352231 3.561875 34.032182  
2002-12-17 09:14:32 51°25.038 2°41.571 9.547912 3.562191 34.033115  
2002-12-17 09:14:37 51°25.055 2°41.561 9.547912 3.562191 34.033115  
2002-12-17 09:14:42 51°25.073 2°41.551 9.043346 3.562718 34.036287  
2002-12-17 09:14:46 51°25.088 2°41.543 9.625321 3.562823 34.035789  
2002-12-17 09:14:52 51°25.109 2°41.532 8.965049 3.562823 34.033364  
2002-12-17 09:14:56 51°25.123 2°41.523 9.238013 3.563139 34.035913  
2002-12-17 09:15:01 51°25.141 2°41.514 9.199041 3.563666 34.04151  
2002-12-17 09:15:07 51°25.162 2°41.502 9.199041 3.563666 34.04151  
2002-12-17 09:15:12 51°25.18 2°41.494 9.66451 3.563245 34.032992  
2002-12-17 09:15:17 51°25.197 2°41.485 9.317451 3.564193 34.042255  
2002-12-17 09:15:21 51°25.212 2°41.477 9.082602 3.564193 34.042255  
2002-12-17 09:15:27 51°25.233 2°41.466 9.315887 3.564298 34.042566  
2002-12-17 09:15:32 51°25.251 2°41.456 9.237586 3.564298 34.043375  
2002-12-17 09:15:37 51°25.27 2°41.447 9.237586 3.564298 34.043375  
2002-12-17 09:15:42 51°25.287 2°41.436 9.080985 3.564193 34.042255  
2002-12-17 09:15:46 51°25.302 2°41.429 9.196904 3.564404 34.044494  
2002-12-17 09:15:51 51°25.32 2°41.419 9.545361 3.564088 34.041945  
2002-12-17 09:15:57 51°25.341 2°41.408 9.15843 3.564193 34.043064  
2002-12-17 09:16:02 51°25.359 2°41.398 9.855541 3.564404 34.045302  
2002-12-17 09:16:05 51°25.37 2°41.392 9.855541 3.564404 34.045302  
2002-12-17 09:16:12 51°25.395 2°41.378 9.235118 3.564509 34.04723  
2002-12-17 09:16:17 51°25.413 2°41.368 9.622207 3.564615 34.048349  
2002-12-17 09:16:22 51°25.431 2°41.358 9.157575 3.564615 34.049158  
2002-12-17 09:16:27 51°25.448 2°41.347 9.353226 3.564825 34.051396  
2002-12-17 09:16:31 51°25.463 2°41.34 9.433328 3.564615 34.049158  
2002-12-17 09:16:37 51°25.484 2°41.328 9.433328 3.564615 34.049158  
2002-12-17 09:16:41 51°25.498 2°41.32 9.047916 3.56472 34.051085  
2002-12-17 09:16:47 51°25.519 2°41.307 9.632868 3.564931 34.053324  
2002-12-17 09:16:49 51°25.526 2°41.304 9.443688 3.56472 34.051085  
2002-12-17 09:16:57 51°25.555 2°41.287 9.448513 3.565141 34.053945  
2002-12-17 09:17:02 51°25.572 2°41.276 9.106525 3.565563 34.056805  
2002-12-17 09:17:06 51°25.586 2°41.268 9.106525 3.565563 34.056805  
2002-12-17 09:17:12 51°25.608 2°41.256 9.270654 3.565668 34.057115  
2002-12-17 09:17:17 51°25.625 2°41.245 8.930299 3.566511 34.062834  
2002-12-17 09:17:21 51°25.639 2°41.237 9.252011 3.566511 34.060408  
2002-12-17 09:17:27 51°25.661 2°41.224 8.989491 3.567248 34.064198  
2002-12-17 09:17:31 51°25.675 2°41.216 9.467951 3.567986 34.065561  
2002-12-17 09:17:37 51°25.697 2°41.203 9.467951 3.567986 34.065561  
2002-12-17 09:17:41 51°25.711 2°41.196 9.251536 3.568934 34.069971  
2002-12-17 09:17:47 51°25.732 2°41.183 9.072422 3.569882 34.071954  
2002-12-17 09:17:51 51°25.746 2°41.176 9.160853 3.571147 34.0781  
2002-12-17 09:17:57 51°25.767 2°41.163 9.408058 3.572306 34.082318  
2002-12-17 09:18:01 51°25.781 2°41.155 9.425994 3.573886 34.086966  
2002-12-17 09:18:05 51°25.795 2°41.147 9.425994 3.573886 34.086966  
2002-12-17 09:18:11 51°25.816 2°41.135 9.053436 3.575888 34.096081  
2002-12-17 09:18:17 51°25.838 2°41.123 9.838099 3.577995 34.103887  
2002-12-17 09:18:21 51°25.851 2°41.115 9.696277 3.57947 34.10741  
2002-12-17 09:18:25 51°25.866 2°41.107 9.555798 3.581156 34.113973  
2002-12-17 09:18:31 51°25.887 2°41.095 9.449648 3.583052 34.121151  
2002-12-17 09:18:37 51°25.908 2°41.083 9.449648 3.583052 34.121151  
2002-12-17 09:18:41 51°25.922 2°41.076 9.613857 3.585159 34.128136  
2002-12-17 09:18:47 51°25.943 2°41.064 9.438201 3.587372 34.13704  
2002-12-17 09:18:51 51°25.957 2°41.057 9.209012 3.589057 34.142783  
2002-12-17 09:18:57 51°25.978 2°41.044 9.597011 3.591375 34.155213  
2002-12-17 09:19:02 51°25.995 2°41.036 9.77657 3.592534 34.154571  
2002-12-17 09:19:05 51°26.006 2°41.03 9.77657 3.592534 34.154571  
2002-12-17 09:19:11 51°26.027 2°41.019 9.438816 3.594642 34.167988  
2002-12-17 09:19:17 51°26.048 2°41.006 9.606496 3.596222 34.172607  
2002-12-17 09:19:22 51°26.066 2°40.996 9.651072 3.598013 34.178644  
2002-12-17 09:19:26 51°26.079 2°40.988 9.614989 3.599594 34.186481  
2002-12-17 09:19:32 51°26.1 2°40.976 9.54385 3.60149 34.196043  
2002-12-17 09:19:37 51°26.118 2°40.966 9.54385 3.60149 34.196043  
2002-12-17 09:19:42 51°26.135 2°40.955 9.194672 3.602754 34.198925  
2002-12-17 09:19:45 51°26.146 2°40.949 9.037872 3.604546 34.206562  
2002-12-17 09:19:51 51°26.167 2°40.937 9.386803 3.606021 34.211665  
2002-12-17 09:19:57 51°26.188 2°40.924 9.347541 3.607074 34.21715  
2002-12-17 09:20:02 51°26.206 2°40.913 9.307213 3.607812 34.219297  
2002-12-17 09:20:06 51°26.22 2°40.905 9.307213 3.607812 34.219297  
2002-12-17 09:20:12 51°26.242 2°40.894 10.764726 3.608444 34.221943  
2002-12-17 09:20:17 51°26.26 2°40.887 9.57662 3.60876 34.223668  
2002-12-17 09:20:22 51°26.278 2°40.879 9.458729 3.609181 34.22731  
2002-12-17 09:20:26 51°26.292 2°40.874 8.991397 3.608971 34.225086  
2002-12-17 09:20:31 51°26.311 2°40.87 9.997392 3.608971 34.224281  
2002-12-17 09:20:37 51°26.334 2°40.867 9.997392 3.608971 34.224281  
2002-12-17 09:20:41 51°26.348 2°40.866 10.416633 3.609076 34.226198  
2002-12-17 09:20:47 51°26.371 2°40.867 9.18375 3.609181 34.22731  
2002-12-17 09:20:50 51°26.382 2°40.868 9.457358 3.609076 34.225393  
2002-12-17 09:20:57 51°26.408 2°40.869 9.611828 3.608971 34.225892  
2002-12-17 09:21:01 51°26.423 2°40.871 9.574779 3.609498 34.232256  
2002-12-17 09:21:06 51°26.441 2°40.874 9.574779 3.609498 34.232256  
2002-12-17 09:21:11 51°26.46 2°40.879 9.614423 3.609076 34.228614  
2002-12-17 09:21:17 51°26.482 2°40.885 9.770075 3.609182 34.228921  
2002-12-17 09:21:22 51°26.5 2°40.893 10.613891 3.609182 34.229726  
2002-12-17 09:21:27 51°26.518 2°40.903 9.309915 3.609498 34.232256  
2002-12-17 09:21:31 51°26.532 2°40.911 8.882076 3.609287 34.230032  
2002-12-17 09:21:37 51°26.552 2°40.925 8.882076 3.609287 34.230032